owner,sensor,date,latitude,longitude,vertical_datum,sea_water_temperature,qcFlag
BP,ioos:station:wmo:42369:2,2022-12-01T00:19:00Z,27.1997,-90.2831,446.6,9.9,11113222
BP,ioos:station:wmo:42369:2,2022-12-01T00:39:00Z,27.1997,-90.2831,446.4,9.9,11113222
BP,ioos:station:wmo:42369:2,2022-12-01T00:59:00Z,27.1997,-90.2831,446.8,9.9,11113222
BP,ioos:station:wmo:42369:2,2022-12-01T01:19:00Z,27.1997,-90.2831,446.4,9.9,11113222
BP,ioos:station:wmo:42369:2,2022-12-01T01:39:00Z,27.1997,-90.2830,446.3,9.9,11113222
BP,ioos:station:wmo:42369:2,2022-12-01T01:59:00Z,27.1997,-90.2831,446.5,9.9,11113222
BP,ioos:station:wmo:42369:2,2022-12-01T02:19:00Z,27.1998,-90.2829,445.9,9.9,11113222
BP,ioos:station:wmo:42369:2,2022-12-01T02:39:00Z,27.1997,-90.2828,446.8,9.9,11113222
BP,ioos:station:wmo:42369:2,2022-12-01T02:59:00Z,27.1997,-90.2827,446.3,9.8,11113222
BP,ioos:station:wmo:42369:2,2022-12-01T03:19:00Z,27.1998,-90.2826,445.7,9.8,11113222
BP,ioos:station:wmo:42369:2,2022-12-01T03:39:00Z,27.1998,-90.2824,445.7,9.8,11113222
BP,ioos:station:wmo:42369:2,2022-12-01T03:59:00Z,27.1999,-90.2823,445.4,9.8,11113222
BP,ioos:station:wmo:42369:2,2022-12-01T04:19:00Z,27.1999,-90.2822,445.6,9.9,11113222
BP,ioos:station:wmo:42369:2,2022-12-01T04:39:00Z,27.2000,-90.2820,445.7,9.9,11113222
BP,ioos:station:wmo:42369:2,2022-12-01T04:59:00Z,27.2000,-90.2817,444.7,10.0,11113222
BP,ioos:station:wmo:42369:2,2022-12-01T05:19:00Z,27.2000,-90.2816,444.2,10.1,11111222
BP,ioos:station:wmo:42369:2,2022-12-01T05:39:00Z,27.2000,-90.2814,444.5,10.1,11111222
BP,ioos:station:wmo:42369:2,2022-12-01T05:59:00Z,27.2001,-90.2813,445.6,10.1,11111222
BP,ioos:station:wmo:42369:2,2022-12-01T06:19:00Z,27.2002,-90.2812,445.3,10.1,11111222
BP,ioos:station:wmo:42369:2,2022-12-01T06:39:00Z,27.2001,-90.2811,444.3,10.0,11113222
BP,ioos:station:wmo:42369:2,2022-12-01T06:59:00Z,27.2001,-90.2810,445.2,9.9,11113222
BP,ioos:station:wmo:42369:2,2022-12-01T07:19:00Z,27.2002,-90.2809,445.2,9.9,11113222
BP,ioos:station:wmo:42369:2,2022-12-01T07:39:00Z,27.2003,-90.2809,444.7,9.9,11113222
BP,ioos:station:wmo:42369:2,2022-12-01T07:59:00Z,27.2002,-90.2809,445.0,9.9,11113222
BP,ioos:station:wmo:42369:2,2022-12-01T08:19:00Z,27.2002,-90.2810,445.3,9.9,11113222
BP,ioos:station:wmo:42369:2,2022-12-01T08:39:00Z,27.2002,-90.2809,445.1,9.9,11113222
BP,ioos:station:wmo:42369:2,2022-12-01T08:59:00Z,27.2002,-90.2810,444.5,9.9,11113222
BP,ioos:station:wmo:42369:2,2022-12-01T09:19:00Z,27.2003,-90.2810,444.9,9.9,11113222
BP,ioos:station:wmo:42369:2,2022-12-01T09:39:00Z,27.2003,-90.2810,444.2,10.0,11113222
BP,ioos:station:wmo:42369:2,2022-12-01T09:59:00Z,27.2004,-90.2809,443.9,10.0,11113222
BP,ioos:station:wmo:42369:2,2022-12-01T10:19:00Z,27.2004,-90.2808,443.8,10.0,11113222
BP,ioos:station:wmo:42369:2,2022-12-01T10:39:00Z,27.2004,-90.2807,444.2,10.0,11113222
BP,ioos:station:wmo:42369:2,2022-12-01T10:59:00Z,27.2004,-90.2806,444.6,10.0,11113222
BP,ioos:station:wmo:42369:2,2022-12-01T11:19:00Z,27.2006,-90.2806,444.3,10.0,11111222
BP,ioos:station:wmo:42369:2,2022-12-01T11:39:00Z,27.2006,-90.2806,443.6,10.0,11111222
BP,ioos:station:wmo:42369:2,2022-12-01T11:59:00Z,27.2006,-90.2806,444.1,10.0,11111222
BP,ioos:station:wmo:42369:2,2022-12-01T12:19:00Z,27.2007,-90.2805,443.5,10.0,11111222
BP,ioos:station:wmo:42369:2,2022-12-01T12:39:00Z,27.2007,-90.2805,443.2,10.0,11111222
BP,ioos:station:wmo:42369:2,2022-12-01T12:59:00Z,27.2006,-90.2804,444.1,10.0,11111222
BP,ioos:station:wmo:42369:2,2022-12-01T13:19:00Z,27.2006,-90.2804,444.3,10.0,11111222
BP,ioos:station:wmo:42369:2,2022-12-01T13:39:00Z,27.2007,-90.2803,443.9,10.1,11111222
BP,ioos:station:wmo:42369:2,2022-12-01T13:59:00Z,27.2006,-90.2803,443.7,10.1,11111222
BP,ioos:station:wmo:42369:2,2022-12-01T14:19:00Z,27.2007,-90.2803,443.8,10.2,11111222
BP,ioos:station:wmo:42369:2,2022-12-01T14:39:00Z,27.2007,-90.2802,443.9,10.1,11111222
BP,ioos:station:wmo:42369:2,2022-12-01T14:59:00Z,27.2007,-90.2801,443.9,10.1,11111222
BP,ioos:station:wmo:42369:2,2022-12-01T15:19:00Z,27.2007,-90.2801,444.1,10.2,11111222
BP,ioos:station:wmo:42369:2,2022-12-01T15:39:00Z,27.2007,-90.2800,444.2,10.1,11111222
BP,ioos:station:wmo:42369:2,2022-12-01T15:59:00Z,27.2007,-90.2800,444.2,10.1,11111222
BP,ioos:station:wmo:42369:2,2022-12-01T16:19:00Z,27.2007,-90.2797,444.0,10.1,11111222
BP,ioos:station:wmo:42369:2,2022-12-01T16:39:00Z,27.2008,-90.2795,444.3,10.2,11111222
BP,ioos:station:wmo:42369:2,2022-12-01T16:59:00Z,27.2008,-90.2794,443.7,10.2,11111222
BP,ioos:station:wmo:42369:2,2022-12-01T17:19:00Z,27.2009,-90.2793,443.9,10.1,11111222
BP,ioos:station:wmo:42369:2,2022-12-01T17:39:00Z,27.2009,-90.2791,443.6,10.2,11111222
BP,ioos:station:wmo:42369:2,2022-12-01T17:59:00Z,27.2009,-90.2790,444.4,10.2,11111222
BP,ioos:station:wmo:42369:2,2022-12-01T18:19:00Z,27.2010,-90.2790,443.9,10.2,11111222
BP,ioos:station:wmo:42369:2,2022-12-01T18:39:00Z,27.2010,-90.2790,444.2,10.1,11111222
BP,ioos:station:wmo:42369:2,2022-12-01T18:59:00Z,27.2009,-90.2789,444.2,10.0,11111222
BP,ioos:station:wmo:42369:2,2022-12-01T19:19:00Z,27.2009,-90.2790,444.5,10.0,11111222
BP,ioos:station:wmo:42369:2,2022-12-01T19:39:00Z,27.2008,-90.2791,444.2,10.1,11111222
BP,ioos:station:wmo:42369:2,2022-12-01T19:59:00Z,27.2007,-90.2793,444.4,10.1,11111222
BP,ioos:station:wmo:42369:2,2022-12-01T20:19:00Z,27.2007,-90.2793,444.7,10.1,11111222
BP,ioos:station:wmo:42369:2,2022-12-01T20:39:00Z,27.2006,-90.2793,444.9,10.1,11111222
BP,ioos:station:wmo:42369:2,2022-12-01T20:59:00Z,27.2007,-90.2793,444.7,10.1,11111222
BP,ioos:station:wmo:42369:2,2022-12-01T21:19:00Z,27.2007,-90.2793,444.9,10.1,11111222
BP,ioos:station:wmo:42369:2,2022-12-01T21:39:00Z,27.2006,-90.2793,444.7,9.9,11113222
BP,ioos:station:wmo:42369:2,2022-12-01T21:59:00Z,27.2007,-90.2794,444.8,10.0,11111222
BP,ioos:station:wmo:42369:2,2022-12-01T22:19:00Z,27.2006,-90.2794,444.3,9.9,11113222
BP,ioos:station:wmo:42369:2,2022-12-01T22:39:00Z,27.2007,-90.2794,444.1,10.0,11113222
BP,ioos:station:wmo:42369:2,2022-12-01T22:59:00Z,27.2006,-90.2795,444.6,10.0,11111222
BP,ioos:station:wmo:42369:2,2022-12-01T23:19:00Z,27.2005,-90.2796,445.0,10.0,11113222
BP,ioos:station:wmo:42369:2,2022-12-01T23:39:00Z,27.2005,-90.2798,445.1,9.8,11113222
BP,ioos:station:wmo:42369:2,2022-12-01T23:59:00Z,27.2004,-90.2801,445.0,9.9,11113222
BP,ioos:station:wmo:42369:2,2022-12-02T00:19:00Z,27.2004,-90.2803,445.4,9.9,11113222
BP,ioos:station:wmo:42369:2,2022-12-02T00:39:00Z,27.2003,-90.2804,444.9,10.0,11113222
BP,ioos:station:wmo:42369:2,2022-12-02T00:59:00Z,27.2003,-90.2805,444.2,9.9,11113222
BP,ioos:station:wmo:42369:2,2022-12-02T01:19:00Z,27.2002,-90.2806,444.5,9.9,11113222
BP,ioos:station:wmo:42369:2,2022-12-02T01:39:00Z,27.2002,-90.2809,444.5,10.0,11113222
BP,ioos:station:wmo:42369:2,2022-12-02T01:59:00Z,27.2002,-90.2810,444.6,10.0,11111222
BP,ioos:station:wmo:42369:2,2022-12-02T02:19:00Z,27.2002,-90.2811,444.5,10.0,11111222
BP,ioos:station:wmo:42369:2,2022-12-02T02:39:00Z,27.2001,-90.2813,445.0,10.1,11111222
BP,ioos:station:wmo:42369:2,2022-12-02T02:59:00Z,27.2001,-90.2815,445.1,10.1,11111222
BP,ioos:station:wmo:42369:2,2022-12-02T03:19:00Z,27.2001,-90.2816,445.2,10.0,11111222
BP,ioos:station:wmo:42369:2,2022-12-02T03:39:00Z,27.2002,-90.2817,445.2,10.0,11113222
BP,ioos:station:wmo:42369:2,2022-12-02T03:59:00Z,27.2001,-90.2819,444.9,9.9,11113222
BP,ioos:station:wmo:42369:2,2022-12-02T04:19:00Z,27.2001,-90.2820,444.9,9.8,11113222
BP,ioos:station:wmo:42369:2,2022-12-02T04:39:00Z,27.2002,-90.2821,444.2,9.8,11113222
BP,ioos:station:wmo:42369:2,2022-12-02T04:59:00Z,27.2002,-90.2821,444.5,9.9,11113222
BP,ioos:station:wmo:42369:2,2022-12-02T05:19:00Z,27.2002,-90.2822,444.9,9.9,11113222
BP,ioos:station:wmo:42369:2,2022-12-02T05:39:00Z,27.2001,-90.2823,444.3,10.1,11111222
BP,ioos:station:wmo:42369:2,2022-12-02T05:59:00Z,27.2001,-90.2822,444.6,9.9,11113222
BP,ioos:station:wmo:42369:2,2022-12-02T06:19:00Z,27.2000,-90.2827,446.0,10.0,11113222
BP,ioos:station:wmo:42369:2,2022-12-02T06:39:00Z,27.1999,-90.2829,445.7,10.0,11111222
BP,ioos:station:wmo:42369:2,2022-12-02T06:59:00Z,27.1999,-90.2830,445.7,10.0,11111222
BP,ioos:station:wmo:42369:2,2022-12-02T07:19:00Z,27.1999,-90.2830,445.3,10.0,11111222
BP,ioos:station:wmo:42369:2,2022-12-02T07:39:00Z,27.2000,-90.2831,445.1,9.9,11113222
BP,ioos:station:wmo:42369:2,2022-12-02T07:59:00Z,27.2000,-90.2831,445.4,9.9,11113222
BP,ioos:station:wmo:42369:2,2022-12-02T08:19:00Z,27.2000,-90.2830,445.8,9.9,11113222
BP,ioos:station:wmo:42369:2,2022-12-02T08:39:00Z,27.2001,-90.2829,445.3,9.9,11113222
BP,ioos:station:wmo:42369:2,2022-12-02T08:59:00Z,27.2001,-90.2828,444.9,9.9,11113222
BP,ioos:station:wmo:42369:2,2022-12-02T09:19:00Z,27.2001,-90.2827,444.8,9.9,11113222
BP,ioos:station:wmo:42369:2,2022-12-02T09:39:00Z,27.2001,-90.2826,444.3,9.8,11113222
BP,ioos:station:wmo:42369:2,2022-12-02T09:59:00Z,27.2001,-90.2825,444.4,9.8,11113222
BP,ioos:station:wmo:42369:2,2022-12-02T10:19:00Z,27.2002,-90.2822,444.6,9.8,11113222
BP,ioos:station:wmo:42369:2,2022-12-02T10:39:00Z,27.2002,-90.2819,444.4,9.8,11113222
BP,ioos:station:wmo:42369:2,2022-12-02T10:59:00Z,27.2003,-90.2817,445.4,9.9,11113222
BP,ioos:station:wmo:42369:2,2022-12-02T11:19:00Z,27.2003,-90.2817,444.3,10.0,11113222
BP,ioos:station:wmo:42369:2,2022-12-02T11:39:00Z,27.2004,-90.2815,444.3,10.1,11111222
BP,ioos:station:wmo:42369:2,2022-12-02T11:59:00Z,27.2004,-90.2814,444.0,10.1,11111222
BP,ioos:station:wmo:42369:2,2022-12-02T12:19:00Z,27.2005,-90.2809,444.3,10.1,11111222
BP,ioos:station:wmo:42369:2,2022-12-02T12:39:00Z,27.2005,-90.2808,443.8,10.1,11111222
BP,ioos:station:wmo:42369:2,2022-12-02T12:59:00Z,27.2005,-90.2806,443.8,10.1,11111222
BP,ioos:station:wmo:42369:2,2022-12-02T13:19:00Z,27.2006,-90.2803,443.6,10.1,11111222
BP,ioos:station:wmo:42369:2,2022-12-02T13:39:00Z,27.2006,-90.2803,443.1,10.1,11111222
BP,ioos:station:wmo:42369:2,2022-12-02T13:59:00Z,27.2008,-90.2796,443.9,10.1,11111222
BP,ioos:station:wmo:42369:2,2022-12-02T14:19:00Z,27.2009,-90.2793,443.7,10.1,11111222
BP,ioos:station:wmo:42369:2,2022-12-02T14:39:00Z,27.2011,-90.2791,444.0,10.1,11111222
BP,ioos:station:wmo:42369:2,2022-12-02T14:59:00Z,27.2012,-90.2788,443.5,10.1,11111222
BP,ioos:station:wmo:42369:2,2022-12-02T15:19:00Z,27.2013,-90.2786,443.8,10.2,11111222
BP,ioos:station:wmo:42369:2,2022-12-02T15:39:00Z,27.2015,-90.2783,443.7,10.2,11111222
BP,ioos:station:wmo:42369:2,2022-12-02T15:59:00Z,27.2016,-90.2780,443.9,10.2,11111222
BP,ioos:station:wmo:42369:2,2022-12-02T16:19:00Z,27.2017,-90.2777,444.2,10.1,11111222
BP,ioos:station:wmo:42369:2,2022-12-02T16:39:00Z,27.2019,-90.2775,444.4,10.1,11111222
BP,ioos:station:wmo:42369:2,2022-12-02T16:59:00Z,27.2019,-90.2775,444.6,10.1,11111222
BP,ioos:station:wmo:42369:2,2022-12-02T17:19:00Z,27.2020,-90.2773,444.3,10.0,11111222
BP,ioos:station:wmo:42369:2,2022-12-02T17:39:00Z,27.2024,-90.2769,444.6,10.0,11111222
BP,ioos:station:wmo:42369:2,2022-12-02T17:59:00Z,27.2025,-90.2767,444.8,10.0,11113222
BP,ioos:station:wmo:42369:2,2022-12-02T18:39:00Z,27.2027,-90.2764,444.7,10.0,11111222
BP,ioos:station:wmo:42369:2,2022-12-02T18:59:00Z,27.2028,-90.2763,445.0,9.9,11113222
BP,ioos:station:wmo:42369:2,2022-12-02T19:19:00Z,27.2028,-90.2763,444.6,9.9,11113222
BP,ioos:station:wmo:42369:2,2022-12-02T19:39:00Z,27.2028,-90.2762,445.1,9.8,11113222
BP,ioos:station:wmo:42369:2,2022-12-02T19:59:00Z,27.2028,-90.2762,445.1,10.0,11113222
BP,ioos:station:wmo:42369:2,2022-12-02T20:19:00Z,27.2027,-90.2762,445.3,10.0,11111222
BP,ioos:station:wmo:42369:2,2022-12-02T20:39:00Z,27.2026,-90.2762,445.7,10.0,11113222
BP,ioos:station:wmo:42369:2,2022-12-02T20:59:00Z,27.2025,-90.2763,446.2,10.1,11111222
BP,ioos:station:wmo:42369:2,2022-12-02T21:19:00Z,27.2023,-90.2764,446.2,10.0,11111222
BP,ioos:station:wmo:42369:2,2022-12-02T21:39:00Z,27.2022,-90.2765,446.2,10.0,11111222
BP,ioos:station:wmo:42369:2,2022-12-02T21:59:00Z,27.2021,-90.2766,446.0,10.0,11113222
BP,ioos:station:wmo:42369:2,2022-12-02T22:19:00Z,27.2020,-90.2767,446.5,9.9,11113222
BP,ioos:station:wmo:42369:2,2022-12-02T22:39:00Z,27.2019,-90.2769,446.1,9.9,11113222
BP,ioos:station:wmo:42369:2,2022-12-02T22:59:00Z,27.2018,-90.2770,446.2,9.9,11113222
BP,ioos:station:wmo:42369:2,2022-12-02T23:19:00Z,27.2017,-90.2771,446.0,9.9,11113222
BP,ioos:station:wmo:42369:2,2022-12-02T23:39:00Z,27.2016,-90.2772,446.2,9.9,11113222
BP,ioos:station:wmo:42369:2,2022-12-02T23:59:00Z,27.2016,-90.2772,446.0,9.9,11113222
BP,ioos:station:wmo:42369:2,2022-12-03T00:19:00Z,27.2014,-90.2775,446.3,9.9,11113222
BP,ioos:station:wmo:42369:2,2022-12-03T00:39:00Z,27.2013,-90.2776,445.5,9.8,11113222
BP,ioos:station:wmo:42369:2,2022-12-03T00:59:00Z,27.2013,-90.2777,446.4,9.9,11113222
BP,ioos:station:wmo:42369:2,2022-12-03T01:19:00Z,27.2012,-90.2779,445.9,9.9,11113222
BP,ioos:station:wmo:42369:2,2022-12-03T01:39:00Z,27.2011,-90.2780,444.9,9.7,11113222
BP,ioos:station:wmo:42369:2,2022-12-03T01:59:00Z,27.2011,-90.2781,445.5,9.7,11113222
BP,ioos:station:wmo:42369:2,2022-12-03T02:19:00Z,27.2010,-90.2782,446.0,9.7,11113222
BP,ioos:station:wmo:42369:2,2022-12-03T03:19:00Z,27.2009,-90.2785,445.6,9.9,11113222
BP,ioos:station:wmo:42369:2,2022-12-03T03:39:00Z,27.2008,-90.2786,446.2,9.8,11113222
BP,ioos:station:wmo:42369:2,2022-12-03T03:59:00Z,27.2008,-90.2786,445.9,9.9,11113222
BP,ioos:station:wmo:42369:2,2022-12-03T04:19:00Z,27.2007,-90.2787,445.8,9.9,11113222
BP,ioos:station:wmo:42369:2,2022-12-03T04:39:00Z,27.2007,-90.2787,445.5,9.9,11113222
BP,ioos:station:wmo:42369:2,2022-12-03T04:59:00Z,27.2007,-90.2787,445.1,9.9,11113222
BP,ioos:station:wmo:42369:2,2022-12-03T05:19:00Z,27.2007,-90.2788,445.2,9.9,11113222
BP,ioos:station:wmo:42369:2,2022-12-03T05:39:00Z,27.2007,-90.2788,445.0,9.9,11113222
BP,ioos:station:wmo:42369:2,2022-12-03T05:59:00Z,27.2007,-90.2788,445.5,10.0,11111222
BP,ioos:station:wmo:42369:2,2022-12-03T06:19:00Z,27.2007,-90.2789,445.4,10.1,11111222
BP,ioos:station:wmo:42369:2,2022-12-03T06:39:00Z,27.2007,-90.2789,445.2,10.1,11111222
BP,ioos:station:wmo:42369:2,2022-12-03T06:59:00Z,27.2007,-90.2790,445.4,10.0,11111222
BP,ioos:station:wmo:42369:2,2022-12-03T07:19:00Z,27.2007,-90.2790,444.7,10.0,11113222
BP,ioos:station:wmo:42369:2,2022-12-03T07:39:00Z,27.2007,-90.2790,445.0,10.0,11111222
BP,ioos:station:wmo:42369:2,2022-12-03T07:59:00Z,27.2007,-90.2790,444.7,10.0,11113222
BP,ioos:station:wmo:42369:2,2022-12-03T08:19:00Z,27.2007,-90.2791,445.0,10.0,11113222
BP,ioos:station:wmo:42369:2,2022-12-03T08:39:00Z,27.2007,-90.2791,445.6,10.0,11111222
BP,ioos:station:wmo:42369:2,2022-12-03T08:59:00Z,27.2007,-90.2791,444.6,10.0,11113222
BP,ioos:station:wmo:42369:2,2022-12-03T09:19:00Z,27.2008,-90.2791,444.8,10.0,11113222
BP,ioos:station:wmo:42369:2,2022-12-03T09:39:00Z,27.2007,-90.2791,445.0,10.0,11113222
BP,ioos:station:wmo:42369:2,2022-12-03T09:59:00Z,27.2008,-90.2791,444.9,9.9,11113222
BP,ioos:station:wmo:42369:2,2022-12-03T10:19:00Z,27.2008,-90.2791,444.7,9.9,11113222
BP,ioos:station:wmo:42369:2,2022-12-03T10:39:00Z,27.2008,-90.2790,445.5,9.9,11113222
BP,ioos:station:wmo:42369:2,2022-12-03T10:59:00Z,27.2008,-90.2790,444.8,9.9,11113222
BP,ioos:station:wmo:42369:2,2022-12-03T11:19:00Z,27.2008,-90.2790,445.1,9.9,11113222
BP,ioos:station:wmo:42369:2,2022-12-03T11:39:00Z,27.2008,-90.2790,444.5,9.9,11113222
BP,ioos:station:wmo:42369:2,2022-12-03T11:59:00Z,27.2008,-90.2789,444.6,9.9,11113222
BP,ioos:station:wmo:42369:2,2022-12-03T12:19:00Z,27.2008,-90.2789,444.7,9.8,11113222
BP,ioos:station:wmo:42369:2,2022-12-03T12:39:00Z,27.2008,-90.2788,444.4,9.9,11113222
BP,ioos:station:wmo:42369:2,2022-12-03T12:59:00Z,27.2009,-90.2788,444.4,9.9,11113222
BP,ioos:station:wmo:42369:2,2022-12-03T13:19:00Z,27.2009,-90.2788,444.6,9.9,11113222
BP,ioos:station:wmo:42369:2,2022-12-03T13:39:00Z,27.2009,-90.2788,444.3,9.9,11113222
BP,ioos:station:wmo:42369:2,2022-12-03T13:59:00Z,27.2009,-90.2788,444.6,9.9,11113222
BP,ioos:station:wmo:42369:2,2022-12-03T14:19:00Z,27.2009,-90.2789,444.4,9.9,11113222
BP,ioos:station:wmo:42369:2,2022-12-03T14:39:00Z,27.2009,-90.2788,444.1,9.9,11113222
BP,ioos:station:wmo:42369:2,2022-12-03T14:59:00Z,27.2009,-90.2788,444.9,10.0,11113222
BP,ioos:station:wmo:42369:2,2022-12-03T15:19:00Z,27.2010,-90.2787,444.5,9.9,11113222
BP,ioos:station:wmo:42369:2,2022-12-03T15:39:00Z,27.2010,-90.2787,444.0,9.9,11113222
BP,ioos:station:wmo:42369:2,2022-12-03T15:59:00Z,27.2011,-90.2785,444.6,9.8,11113222
BP,ioos:station:wmo:42369:2,2022-12-03T16:19:00Z,27.2013,-90.2782,444.3,9.9,11113222
BP,ioos:station:wmo:42369:2,2022-12-03T16:39:00Z,27.2014,-90.2781,444.8,9.9,11113222
BP,ioos:station:wmo:42369:2,2022-12-03T16:59:00Z,27.2014,-90.2781,444.9,9.9,11113222
BP,ioos:station:wmo:42369:2,2022-12-03T17:19:00Z,27.2014,-90.2781,444.1,10.0,11111222
BP,ioos:station:wmo:42369:2,2022-12-03T17:39:00Z,27.2015,-90.2780,444.6,10.1,11111222
BP,ioos:station:wmo:42369:2,2022-12-03T17:59:00Z,27.2015,-90.2780,444.2,10.1,11111222
BP,ioos:station:wmo:42369:2,2022-12-03T18:19:00Z,27.2019,-90.2777,444.0,10.0,11111222
BP,ioos:station:wmo:42369:2,2022-12-03T18:39:00Z,27.2019,-90.2779,443.6,10.1,11111222
BP,ioos:station:wmo:42369:2,2022-12-03T18:59:00Z,27.2017,-90.2786,443.4,10.1,11111222
BP,ioos:station:wmo:42369:2,2022-12-03T19:19:00Z,27.2015,-90.2793,443.5,10.0,11111222
BP,ioos:station:wmo:42369:2,2022-12-03T19:39:00Z,27.2014,-90.2795,443.5,10.0,11111222
BP,ioos:station:wmo:42369:2,2022-12-03T19:59:00Z,27.2013,-90.2796,443.6,10.0,11113222
BP,ioos:station:wmo:42369:2,2022-12-03T20:19:00Z,27.2012,-90.2796,443.4,10.1,11111222
BP,ioos:station:wmo:42369:2,2022-12-03T20:39:00Z,27.2013,-90.2795,443.5,10.1,11111222
BP,ioos:station:wmo:42369:2,2022-12-03T20:59:00Z,27.2014,-90.2792,443.5,10.1,11111222
BP,ioos:station:wmo:42369:2,2022-12-03T21:19:00Z,27.2016,-90.2788,443.6,10.0,11111222
BP,ioos:station:wmo:42369:2,2022-12-03T21:39:00Z,27.2017,-90.2783,443.5,10.0,11111222
BP,ioos:station:wmo:42369:2,2022-12-03T21:59:00Z,27.2018,-90.2779,443.7,10.0,11111222
BP,ioos:station:wmo:42369:2,2022-12-03T22:19:00Z,27.2018,-90.2778,444.2,10.0,11113222
BP,ioos:station:wmo:42369:2,2022-12-03T22:39:00Z,27.2018,-90.2776,444.1,9.9,11113222
BP,ioos:station:wmo:42369:2,2022-12-03T22:59:00Z,27.2018,-90.2776,443.8,9.9,11113222
BP,ioos:station:wmo:42369:2,2022-12-03T23:19:00Z,27.2018,-90.2776,444.8,9.9,11113222
BP,ioos:station:wmo:42369:2,2022-12-03T23:39:00Z,27.2018,-90.2776,444.6,9.9,11113222
BP,ioos:station:wmo:42369:2,2022-12-03T23:59:00Z,27.2018,-90.2776,444.3,9.8,11113222
BP,ioos:station:wmo:42369:2,2022-12-04T00:19:00Z,27.2017,-90.2776,444.6,9.9,11113222
BP,ioos:station:wmo:42369:2,2022-12-04T00:39:00Z,27.2017,-90.2777,444.6,9.9,11113222
BP,ioos:station:wmo:42369:2,2022-12-04T00:59:00Z,27.2017,-90.2778,444.5,9.8,11113222
BP,ioos:station:wmo:42369:2,2022-12-04T01:19:00Z,27.2016,-90.2778,444.2,9.9,11113222
BP,ioos:station:wmo:42369:2,2022-12-04T01:39:00Z,27.2016,-90.2779,444.0,9.9,11113222
BP,ioos:station:wmo:42369:2,2022-12-04T01:59:00Z,27.2016,-90.2780,444.6,9.9,11113222
BP,ioos:station:wmo:42369:2,2022-12-04T02:19:00Z,27.2015,-90.2781,444.5,9.9,11113222
BP,ioos:station:wmo:42369:2,2022-12-04T02:39:00Z,27.2014,-90.2782,444.2,10.0,11113222
BP,ioos:station:wmo:42369:2,2022-12-04T02:59:00Z,27.2014,-90.2783,443.9,9.9,11113222
BP,ioos:station:wmo:42369:2,2022-12-04T03:19:00Z,27.2013,-90.2784,443.5,10.0,11113222
BP,ioos:station:wmo:42369:2,2022-12-04T03:39:00Z,27.2013,-90.2784,443.9,10.0,11111222
BP,ioos:station:wmo:42369:2,2022-12-04T03:59:00Z,27.2014,-90.2784,443.9,10.1,11111222
BP,ioos:station:wmo:42369:2,2022-12-04T04:19:00Z,27.2014,-90.2783,443.9,10.0,11111222
BP,ioos:station:wmo:42369:2,2022-12-04T04:39:00Z,27.2014,-90.2783,443.8,10.0,11111222
BP,ioos:station:wmo:42369:2,2022-12-04T04:59:00Z,27.2014,-90.2784,443.8,10.0,11111222
BP,ioos:station:wmo:42369:2,2022-12-04T05:19:00Z,27.2015,-90.2784,443.1,10.1,11111222
BP,ioos:station:wmo:42369:2,2022-12-04T05:39:00Z,27.2014,-90.2784,443.3,10.1,11111222
BP,ioos:station:wmo:42369:2,2022-12-04T05:59:00Z,27.2015,-90.2783,444.0,10.1,11111222
BP,ioos:station:wmo:42369:2,2022-12-04T06:19:00Z,27.2015,-90.2783,443.9,10.0,11111222
BP,ioos:station:wmo:42369:2,2022-12-04T06:39:00Z,27.2015,-90.2783,443.1,10.0,11111222
BP,ioos:station:wmo:42369:2,2022-12-04T06:59:00Z,27.2015,-90.2784,444.1,10.1,11111222
BP,ioos:station:wmo:42369:2,2022-12-04T07:19:00Z,27.2015,-90.2784,443.5,10.1,11111222
BP,ioos:station:wmo:42369:2,2022-12-04T07:39:00Z,27.2015,-90.2784,443.6,10.1,11111222
BP,ioos:station:wmo:42369:2,2022-12-04T07:59:00Z,27.2015,-90.2784,443.9,9.9,11113222
BP,ioos:station:wmo:42369:2,2022-12-04T08:19:00Z,27.2015,-90.2784,443.5,10.0,11113222
BP,ioos:station:wmo:42369:2,2022-12-04T08:39:00Z,27.2015,-90.2784,443.3,9.8,11113222
BP,ioos:station:wmo:42369:2,2022-12-04T08:59:00Z,27.2015,-90.2784,443.8,9.8,11113222
BP,ioos:station:wmo:42369:2,2022-12-04T09:19:00Z,27.2015,-90.2785,443.8,9.9,11113222
BP,ioos:station:wmo:42369:2,2022-12-04T09:39:00Z,27.2015,-90.2785,443.1,9.9,11113222
BP,ioos:station:wmo:42369:2,2022-12-04T09:59:00Z,27.2015,-90.2785,443.0,9.9,11113222
BP,ioos:station:wmo:42369:2,2022-12-04T10:19:00Z,27.2015,-90.2785,444.0,9.8,11113222
BP,ioos:station:wmo:42369:2,2022-12-04T12:19:00Z,27.2018,-90.2782,443.5,9.9,11113222
BP,ioos:station:wmo:42369:2,2022-12-04T12:39:00Z,27.2017,-90.2783,443.7,9.9,11113222
BP,ioos:station:wmo:42369:2,2022-12-04T12:59:00Z,27.2017,-90.2783,443.1,9.8,11113222
BP,ioos:station:wmo:42369:2,2022-12-04T13:19:00Z,27.2017,-90.2783,443.5,9.9,11113222
BP,ioos:station:wmo:42369:2,2022-12-04T14:19:00Z,27.2018,-90.2784,443.3,9.8,11113222
BP,ioos:station:wmo:42369:2,2022-12-04T14:39:00Z,27.2019,-90.2784,442.9,9.8,11113222
BP,ioos:station:wmo:42369:2,2022-12-04T14:59:00Z,27.2019,-90.2784,443.3,9.8,11113222
BP,ioos:station:wmo:42369:2,2022-12-04T15:19:00Z,27.2020,-90.2783,443.3,9.7,11113222
BP,ioos:station:wmo:42369:2,2022-12-04T15:39:00Z,27.2020,-90.2782,443.4,9.8,11113222
BP,ioos:station:wmo:42369:2,2022-12-04T15:59:00Z,27.2021,-90.2780,443.2,9.9,11113222
BP,ioos:station:wmo:42369:2,2022-12-04T16:19:00Z,27.2023,-90.2777,443.5,9.8,11113222
BP,ioos:station:wmo:42369:2,2022-12-04T16:39:00Z,27.2023,-90.2777,444.3,9.9,11113222
BP,ioos:station:wmo:42369:2,2022-12-04T16:59:00Z,27.2023,-90.2776,442.6,9.9,11113222
BP,ioos:station:wmo:42369:2,2022-12-04T17:19:00Z,27.2024,-90.2775,443.9,9.9,11113222
BP,ioos:station:wmo:42369:2,2022-12-04T17:39:00Z,27.2024,-90.2773,443.5,10.0,11113222
BP,ioos:station:wmo:42369:2,2022-12-05T16:19:00Z,27.2036,-90.2765,443.2,10.0,11113222
BP,ioos:station:wmo:42369:2,2022-12-05T16:39:00Z,27.2038,-90.2762,444.0,10.0,11113222
BP,ioos:station:wmo:42369:2,2022-12-05T16:59:00Z,27.2041,-90.2760,443.8,9.9,11113222
BP,ioos:station:wmo:42369:2,2022-12-05T17:19:00Z,27.2044,-90.2758,443.0,9.9,11113222
BP,ioos:station:wmo:42369:2,2022-12-05T17:39:00Z,27.2046,-90.2756,443.2,10.0,11113222
BP,ioos:station:wmo:42369:2,2022-12-05T17:59:00Z,27.2049,-90.2755,443.7,10.0,11111222
BP,ioos:station:wmo:42369:2,2022-12-05T18:19:00Z,27.2052,-90.2753,443.8,10.0,11111222
BP,ioos:station:wmo:42369:2,2022-12-05T18:39:00Z,27.2054,-90.2751,444.1,10.1,11111222
BP,ioos:station:wmo:42369:2,2022-12-05T18:59:00Z,27.2056,-90.2751,443.5,10.1,11111222
BP,ioos:station:wmo:42369:2,2022-12-05T19:19:00Z,27.2058,-90.2750,444.2,10.2,11111222
BP,ioos:station:wmo:42369:2,2022-12-05T19:39:00Z,27.2059,-90.2750,443.7,10.0,11113222
BP,ioos:station:wmo:42369:2,2022-12-05T19:59:00Z,27.2059,-90.2750,444.6,10.0,11113222
BP,ioos:station:wmo:42369:2,2022-12-05T20:19:00Z,27.2061,-90.2750,444.3,10.0,11111222
BP,ioos:station:wmo:42369:2,2022-12-05T20:39:00Z,27.2062,-90.2750,443.7,9.9,11113222
BP,ioos:station:wmo:42369:2,2022-12-05T20:59:00Z,27.2063,-90.2750,443.4,9.9,11113222
BP,ioos:station:wmo:42369:2,2022-12-05T21:19:00Z,27.2064,-90.2750,444.1,9.9,11113222
BP,ioos:station:wmo:42369:2,2022-12-05T21:39:00Z,27.2063,-90.2749,443.6,9.9,11113222